Flag for United Kingdom Weather past 2 weeks in Leeds, England, United Kingdom

Now
41 °F

Sprinkles. Scattered clouds.


Feels Like: 30 °F
Forecast: 37 / 46 °F
Wind: 29 mph from West

Location: Leeds And Bradford

Current Time: Mar 1, 2015 at 11:01:41 AM

Latest Report: Mar 1, 2015 at 10:20 AM


Visibility: N/A

Pressure: 29.33 "Hg

Humidity: 76%

Dew point: 34 °F

Location of LeedsLocation

Historic Weather in Leeds — Graph

°F

Leeds temperature yesterday

Maximum temperature yesterday: 48 °F (at 11:50 AM)
Minimum temperature yesterday: 41 °F (at 12:20 AM)
Average temperature yesterday: 45 °F

Past Weeks' High & Low Weather Summary

 TemperatureHumidityPressure
High50 °F (Feb 18, 1:50 PM)100% (Feb 14, 9:20 AM)30.60 "Hg (Feb 14, 9:20 AM)
Low30 °F (Feb 17, 1:50 AM)57% (Feb 23, 2:20 PM)28.91 "Hg (Feb 23, 6:20 PM)
Average40 °F88%29.75 "Hg
* Reported Feb 14 9:20 AM — Mar 1 9:50 AM, Leeds, Weather by CustomWeather, © 2015

Note: Actual official high and low records may vary slightly from our data, if they occured in-between our weather recording intervals... More about our weather records

Advertising

Leeds weather history for previous 24 hours

 ConditionsComfort  
Time TempWeatherWind HumidityBarometerVisibility
9:50 AM
Sun, Mar 1
41 °FSprinkles. Scattered clouds.28 mph81%29.30 "HgN/A
9:20 AM39 °FSprinkles. Scattered clouds.25 mph87%29.30 "HgN/A
8:50 AM39 °FSprinkles. Scattered clouds.23 mph87%29.30 "HgN/A
8:20 AM39 °FSprinkles. Scattered clouds.25 mph87%29.30 "Hg5 mi
7:50 AM41 °FScattered showers. Scattered clouds.28 mph76%29.27 "HgN/A
7:20 AM39 °FScattered showers. Scattered clouds.29 mph81%29.27 "HgN/A
6:50 AM39 °FSprinkles. Passing clouds.26 mph87%29.27 "HgN/A
6:20 AM41 °FSprinkles. Passing clouds.26 mph76%29.27 "HgN/A
5:50 AM41 °FSprinkles. Passing clouds.24 mph76%29.27 "HgN/A
5:20 AM41 °FSprinkles. Passing clouds.21 mph81%29.24 "HgN/A
4:50 AM41 °FPartly cloudy.26 mph76%29.24 "HgN/A
4:20 AM41 °FPassing clouds.25 mph81%29.21 "HgN/A
3:50 AM41 °FPassing clouds.25 mph81%29.21 "HgN/A
3:20 AM41 °FPassing clouds.26 mph81%29.21 "HgN/A
2:50 AM41 °FPassing clouds.26 mph81%29.21 "HgN/A
2:20 AM43 °FPassing clouds.22 mph76%29.21 "HgN/A
1:50 AM41 °FPassing clouds.23 mph87%29.21 "HgN/A
1:20 AM43 °FPassing clouds.32 mph81%29.18 "HgN/A
12:50 AM45 °FPassing clouds.26 mph81%29.15 "HgN/A
12:20 AM45 °FPassing clouds.29 mph81%29.15 "HgN/A
11:50 PM
Sat, Feb 28
46 °FPassing clouds.25 mph76%29.15 "HgN/A
11:20 PM46 °FSprinkles. Passing clouds.24 mph82%29.15 "HgN/A
10:50 PM48 °FPassing clouds.28 mph76%29.15 "HgN/A
10:20 PM48 °FSprinkles. Passing clouds.26 mph87%29.12 "HgN/A
9:50 PM46 °FPassing clouds.17 mph93%29.12 "HgN/A
9:20 PM46 °FLight rain. Partly cloudy.16 mph93%29.15 "HgN/A
8:50 PM46 °FLight rain. Partly cloudy.15 mph93%29.18 "HgN/A
8:20 PM46 °FLight rain. Partly cloudy.17 mph87%29.18 "HgN/A
7:50 PM45 °FLight rain. Partly cloudy.15 mph93%29.21 "HgN/A
7:20 PM45 °FPartly cloudy.15 mph87%29.24 "HgN/A
6:50 PM45 °FLight rain. Partly cloudy.16 mph87%29.27 "HgN/A
6:20 PM45 °FLight rain. Partly cloudy.15 mph87%29.27 "HgN/A
5:50 PM45 °FLight rain. Partly cloudy.17 mph87%29.30 "HgN/A
5:20 PM46 °FSprinkles. Scattered clouds.16 mph82%29.33 "HgN/A
4:50 PM46 °FScattered clouds.15 mph82%29.36 "HgN/A
4:20 PM46 °FScattered clouds.16 mph82%29.39 "HgN/A
3:50 PM46 °FScattered clouds.13 mph87%29.42 "HgN/A
3:20 PM46 °FLight rain. Scattered clouds.10 mph87%29.45 "HgN/A
2:50 PM46 °FLight rain. Scattered clouds.6 mph93%29.47 "HgN/A
2:20 PM48 °FScattered clouds.8 mph82%29.50 "HgN/A
1:50 PM46 °FLight rain. Scattered clouds.6 mph87%29.50 "HgN/A
1:20 PM48 °FScattered clouds.10 mph82%29.53 "HgN/A
12:50 PM48 °FScattered clouds.10 mph76%29.53 "HgN/A
12:20 PM48 °FScattered clouds.14 mph76%29.56 "HgN/A
11:50 AM48 °FScattered clouds.14 mph82%29.56 "HgN/A
11:20 AM46 °FScattered clouds.10 mph87%29.59 "HgN/A
Weather by CustomWeather, © 2015

See weather overviewHow to use our weather pages